Flag for U.S.A. Weather past 2 weeks in Lowell, Massachusetts, U.S.A.

Now
74 °F

Sunny.


Feels Like: 77 °F
Forecast: 56 / 80 °F
Wind: 7 mph from North

Location: Hanscom Field

Current Time: Jul 3, 2015 at 11:57:15 AM

Latest Report: Jul 3, 2015 at 10:56 AM


Visibility: 10 mi

Pressure: 29.99 "Hg

Humidity: 38%

Dew point: 47 °F

Location of LowellLocation

Historic Weather in Lowell — Graph

°F

Lowell temperature yesterday

Maximum temperature yesterday: 77 °F (at 1:56 PM)
Minimum temperature yesterday: 58 °F (at 5:56 AM)
Average temperature yesterday: 69 °F

Past Weeks' High & Low Weather Summary

 TemperatureHumidityPressure
High86 °F (Jun 23, 2:56 PM)100% (Jun 22, 4:56 AM)30.21 "Hg (Jun 22, 4:56 AM)
Low49 °F (Jun 20, 4:56 AM)33% (Jun 24, 5:56 PM)29.64 "Hg (Jun 21, 2:03 PM)
Average67 °F73%29.93 "Hg
* Reported Jun 18 9:56 AM — Jul 3 9:56 AM, Lowell, Weather by CustomWeather, © 2015

Note: Actual official high and low records may vary slightly from our data, if they occured in-between our weather recording intervals... More about our weather records

Advertising

Lowell weather history for previous 24 hours

 ConditionsComfort  
Time TempWeatherWind HumidityBarometerVisibility
9:56 AM
Fri, Jul 3
71 °FPassing clouds.8 mph47%29.99 "Hg10 mi
8:56 AM69 °FPassing clouds.7 mph55%29.99 "Hg10 mi
7:56 AM65 °FPassing clouds.6 mph63%29.98 "Hg10 mi
6:56 AM60 °FSunny.5 mph78%29.96 "Hg10 mi
5:56 AM55 °FClear.No wind90%29.94 "Hg10 mi
4:56 AM56 °FClear.No wind90%29.92 "Hg10 mi
3:56 AM57 °FClear.No wind93%29.91 "Hg10 mi
2:56 AM58 °FClear.3 mph93%29.91 "Hg10 mi
1:56 AM61 °FClear.No wind90%29.90 "Hg10 mi
12:56 AM62 °FClear.No wind90%29.90 "Hg10 mi
11:56 PM
Thu, Jul 2
64 °FClear.No wind87%29.89 "Hg10 mi
10:56 PM64 °FClear.No wind90%29.90 "Hg10 mi
9:56 PM65 °FClear.No wind81%29.90 "Hg10 mi
8:56 PM67 °FSunny.3 mph79%29.89 "Hg10 mi
7:56 PM70 °FSunny.5 mph68%29.88 "Hg10 mi
6:56 PM72 °FSunny.5 mph61%29.89 "Hg10 mi
5:56 PM74 °FSunny.6 mph56%29.88 "Hg10 mi
4:56 PM75 °FSunny.8 mph52%29.89 "Hg10 mi
3:56 PM77 °FPassing clouds.10 mph50%29.89 "Hg10 mi
2:56 PM77 °FPartly sunny.10 mph48%29.90 "Hg10 mi
1:56 PM77 °FScattered clouds.10 mph50%29.89 "Hg10 mi
12:56 PM76 °FScattered clouds.7 mph50%29.90 "Hg10 mi
11:56 AM75 °FScattered clouds.7 mph52%29.91 "Hg10 mi
Weather by CustomWeather, © 2015

See weather overviewHow to use our weather pages